Terminal Aerodrome Forecast
Issued by NWS Oklahoma City, OK

Home | Current Version | Previous Version | Text Only | Print | Product List | Glossary On
Versions: 1 2 3 4 5 6 7 8 9 10 11 12 13 14 15 16 17 18 19 20 21 22 23
239
FTUS44 KOUN 111124
TAFOUN
TAF
KOUN 111124Z 1112/1212 32008KT P6SM SCT250
     FM111400 01010KT P6SM FEW250
     FM120000 VRB03KT P6SM SKC=

USA.gov is the U.S. government's official web portal to all federal, state and local government web resources and services.